�N����,�����b,�ŏ������i�x�j,���ϕ����i�x�j,�ő啗���i�x�j,�ŏ�����(m/s),���ϕ���(m/s),�ő啗��(m/s),�C��(���j,���x�i���j,�C��(hPa),�~�J��(mm),�~�J����(�b�j,�~�J���x(mm/h),�ő�~�J���x(mm/h),�~�Ђ傤��(hit/���u),�~�Ђ傤����(�b�j,�~�Ђ傤���x(hit/���uh),�ő�~�Ђ傤���x(hit/���uh),�q�[�^���x(���j,�q�[�^�[�d���iV),�d���d���iV),�Q�Ɠd���iV)
2012/02/01,00:00:01,073,087,109,0.6,0.7,0.8,14.0,63.5,1013.1,0.00,0,0.0,////,0.0,0,0.0,////,12.2,0.0,12.4,3.524
2012/02/01,00:10:01,060,068,082,1.6,1.9,2.3,14.0,63.4,1013.1,0.00,0,0.0,////,0.0,0,0.0,////,12.2,0.0,12.2,3.523
2012/02/01,00:20:01,065,068,073,0.9,1.0,1.1,14.0,63.1,1013.1,0.00,0,0.0,////,0.0,0,0.0,////,12.2,0.0,12.3,3.524
2012/02/01,00:30:01,066,074,088,0.8,1.0,1.4,14.0,64.0,1013.1,0.00,0,0.0,////,0.0,0,0.0,////,12.4,0.0,12.3,3.524
2012/02/01,00:40:01,065,075,081,1.3,1.4,1.5,14.0,63.6,1013.0,0.00,0,0.0,////,0.0,0,0.0,////,12.2,0.0,12.3,3.523
2012/02/01,00:50:01,082,083,084,0.6,0.8,1.0,13.9,63.0,1013.0,0.00,0,0.0,////,0.0,0,0.0,////,12.0,0.0,12.2,3.523
2012/02/01,01:00:01,127,136,143,0.9,0.9,1.0,13.9,62.8,1013.1,0.00,0,0.0,////,0.0,0,0.0,////,12.0,0.0,12.2,3.523
2012/02/01,01:10:01,065,074,079,0.9,1.0,1.1,14.1,62.6,1013.0,0.00,0,0.0,////,0.0,0,0.0,////,12.0,0.0,12.4,3.523
2012/02/01,01:20:01,039,042,044,1.1,1.2,1.4,14.2,62.1,1013.1,0.00,0,0.0,////,0.0,0,0.0,////,12.2,0.0,12.4,3.524
2012/02/01,01:30:01,066,072,082,0.3,0.4,0.5,14.2,61.4,1013.1,0.00,0,0.0,////,0.0,0,0.0,////,12.2,0.0,12.3,3.523
2012/02/01,01:40:01,038,059,075,0.5,0.6,0.7,14.0,62.3,1013.0,0.00,0,0.0,////,0.0,0,0.0,////,12.2,0.0,12.3,3.524
2012/02/01,01:50:01,083,093,101,1.8,2.0,2.1,13.9,63.4,1013.1,0.00,0,0.0,////,0.0,0,0.0,////,12.5,0.0,12.3,3.523
2012/02/01,02:00:01,055,059,067,0.7,0.9,1.1,14.2,64.0,1013.1,0.00,0,0.0,////,0.0,0,0.0,////,12.5,0.0,12.2,3.523
2012/02/01,02:10:01,016,054,076,0.3,0.5,0.7,14.4,64.1,1013.1,0.00,0,0.0,////,0.0,0,0.0,////,13.1,0.0,12.4,3.523
2012/02/01,02:20:01,056,075,089,1.1,1.4,2.0,14.6,64.1,1013.0,0.00,0,0.0,////,0.0,0,0.0,////,13.2,0.0,12.4,3.521
2012/02/01,02:30:01,019,022,025,4.1,4.3,4.5,15.1,62.7,1012.9,0.00,0,0.0,////,0.0,0,0.0,////,13.9,0.0,12.4,3.523
2012/02/01,02:40:01,027,029,031,2.7,3.4,4.2,15.2,60.7,1012.8,0.00,0,0.0,////,0.0,0,0.0,////,14.1,0.0,12.2,3.521
2012/02/01,02:50:01,038,043,046,3.3,3.6,3.8,15.3,59.5,1012.8,0.00,0,0.0,////,0.0,0,0.0,////,14.1,0.0,12.2,3.523
2012/02/01,03:00:01,014,021,031,4.2,4.5,4.7,15.4,60.2,1012.7,0.00,0,0.0,////,0.0,0,0.0,////,14.3,0.0,12.2,3.524
2012/02/01,03:10:01,024,033,039,1.9,2.2,2.3,15.3,58.2,1012.7,0.00,0,0.0,////,0.0,0,0.0,////,14.3,0.0,12.3,3.524
2012/02/01,03:20:01,000,003,009,3.7,3.9,4.1,15.4,57.2,1012.7,0.00,0,0.0,////,0.0,0,0.0,////,14.3,0.0,12.3,3.524
2012/02/01,03:30:01,339,353,015,1.7,2.5,3.1,15.4,58.7,1012.7,0.00,0,0.0,////,0.0,0,0.0,////,14.3,0.0,12.2,3.521
2012/02/01,03:40:01,004,009,017,2.7,2.9,3.2,15.4,58.1,1012.7,0.00,0,0.0,////,0.0,0,0.0,////,14.3,0.0,12.3,3.524
2012/02/01,03:50:01,003,006,010,1.9,2.1,2.4,15.3,56.5,1012.6,0.00,0,0.0,////,0.0,0,0.0,////,14.1,0.0,12.2,3.523
2012/02/01,04:00:01,344,351,356,1.4,1.8,2.3,15.2,56.4,1012.4,0.00,0,0.0,////,0.0,0,0.0,////,13.9,0.0,12.4,3.523
2012/02/01,04:10:01,344,347,351,1.5,1.6,1.7,15.1,57.0,1012.4,0.00,0,0.0,////,0.0,0,0.0,////,13.7,0.0,12.2,3.523
2012/02/01,04:20:01,007,037,071,2.8,3.1,3.5,15.0,57.1,1012.2,0.00,0,0.0,////,0.0,0,0.0,////,13.6,0.0,12.3,3.523
2012/02/01,04:30:01,340,008,029,1.3,2.1,2.8,15.0,57.5,1012.2,0.00,0,0.0,////,0.0,0,0.0,////,13.7,0.0,12.4,3.523
2012/02/01,04:40:01,002,005,010,2.1,2.6,3.0,15.0,57.9,1012.2,0.00,0,0.0,////,0.0,0,0.0,////,13.6,0.0,12.3,3.525
2012/02/01,04:50:01,010,015,020,3.5,3.6,3.8,15.2,57.0,1012.2,0.00,0,0.0,////,0.0,0,0.0,////,13.7,0.0,12.4,3.523
2012/02/01,05:00:01,027,032,035,1.8,2.6,3.4,15.2,55.5,1012.2,0.00,0,0.0,////,0.0,0,0.0,////,13.9,0.0,12.3,3.523
2012/02/01,05:10:01,009,016,028,2.6,3.2,3.7,15.1,53.6,1012.4,0.00,0,0.0,////,0.0,0,0.0,////,13.9,0.0,12.2,3.523
2012/02/01,05:20:01,009,010,012,3.7,3.9,4.0,15.2,56.1,1012.4,0.00,0,0.0,////,0.0,0,0.0,////,13.9,0.0,12.3,3.523
2012/02/01,05:30:01,012,023,030,3.2,3.4,3.5,15.2,51.3,1012.3,0.00,0,0.0,////,0.0,0,0.0,////,13.7,0.0,12.3,3.523
2012/02/01,05:40:01,355,357,358,3.0,3.4,3.8,15.4,51.4,1012.4,0.00,0,0.0,////,0.0,0,0.0,////,14.1,0.0,12.3,3.523
2012/02/01,05:50:01,355,000,009,2.8,3.0,3.3,15.5,53.3,1012.4,0.00,0,0.0,////,0.0,0,0.0,////,14.1,0.0,12.3,3.519
2012/02/01,06:00:01,010,011,012,3.2,3.4,3.6,15.4,52.6,1012.6,0.00,0,0.0,////,0.0,0,0.0,////,14.1,0.0,12.3,3.523
2012/02/01,06:10:01,009,013,017,3.0,3.2,3.5,15.3,53.5,1012.6,0.00,0,0.0,////,0.0,0,0.0,////,13.9,0.0,12.3,3.521
2012/02/01,06:20:01,326,328,331,1.1,1.5,1.9,15.3,47.6,1012.6,0.00,0,0.0,////,0.0,0,0.0,////,13.9,0.0,12.3,3.523
2012/02/01,06:30:01,001,008,016,3.1,3.9,4.5,15.5,54.5,1012.7,0.00,0,0.0,////,0.0,0,0.0,////,14.1,0.0,12.3,3.523
2012/02/01,06:40:01,016,018,020,3.2,3.5,3.9,15.5,54.6,1012.8,0.00,0,0.0,////,0.0,0,0.0,////,14.1,0.0,12.2,3.521
2012/02/01,06:50:01,017,022,028,2.9,3.1,3.2,15.5,51.8,1012.9,0.00,0,0.0,////,0.0,0,0.0,////,14.4,0.0,12.3,3.523
2012/02/01,07:00:01,019,022,024,2.5,2.8,3.4,15.6,52.0,1013.1,0.00,0,0.0,////,0.0,0,0.0,////,14.4,0.0,12.3,3.523
2012/02/01,07:10:01,014,017,019,3.9,4.3,4.8,15.5,51.5,1013.0,0.00,0,0.0,////,0.0,0,0.0,////,14.3,0.0,12.3,3.521
2012/02/01,07:20:01,011,025,032,2.7,3.6,4.3,15.5,51.1,1013.0,0.00,0,0.0,////,0.0,0,0.0,////,14.3,0.0,12.3,3.523
2012/02/01,07:30:01,012,017,020,3.7,4.5,5.1,15.5,51.3,1013.2,0.00,0,0.0,////,0.0,0,0.0,////,14.3,0.0,12.3,3.523
2012/02/01,07:40:01,037,043,050,1.8,2.1,2.5,15.5,50.5,1013.6,0.00,0,0.0,////,0.0,0,0.0,////,14.4,0.0,12.3,3.523
2012/02/01,07:50:01,019,026,030,2.0,2.3,2.7,15.5,50.1,1013.7,0.00,0,0.0,////,0.0,0,0.0,////,14.4,0.0,12.3,3.523
2012/02/01,08:00:01,019,024,035,2.4,2.6,2.8,15.7,50.9,1013.6,0.00,0,0.0,////,0.0,0,0.0,////,15.0,0.0,12.2,3.523
2012/02/01,08:10:01,351,359,006,4.2,4.8,5.5,15.6,51.8,1013.7,0.00,0,0.0,////,0.0,0,0.0,////,15.0,0.0,12.3,3.523
2012/02/01,08:20:01,350,358,013,3.1,3.2,3.3,15.9,51.4,1013.8,0.00,0,0.0,////,0.0,0,0.0,////,15.8,0.0,12.3,3.521
2012/02/01,08:30:01,007,011,014,2.9,3.1,3.3,15.7,49.9,1014.1,0.00,0,0.0,////,0.0,0,0.0,////,15.3,0.0,12.3,3.523
2012/02/01,08:40:01,330,341,000,3.2,3.4,3.7,15.9,51.1,1014.1,0.00,0,0.0,////,0.0,0,0.0,////,15.8,0.0,12.3,3.521
2012/02/01,08:50:01,010,017,024,2.0,2.3,2.5,15.8,49.7,1014.3,0.00,0,0.0,////,0.0,0,0.0,////,16.0,0.0,12.3,3.523
2012/02/01,09:00:01,033,035,037,1.3,1.5,1.8,15.8,49.7,1014.3,0.00,0,0.0,////,0.0,0,0.0,////,15.6,0.0,12.3,3.523
2012/02/01,09:10:01,358,000,001,2.1,2.4,2.7,15.8,50.4,1014.5,0.00,0,0.0,////,0.0,0,0.0,////,15.5,0.0,12.3,3.521
2012/02/01,09:20:01,027,038,049,1.9,2.3,2.8,15.8,51.2,1014.5,0.00,0,0.0,////,0.0,0,0.0,////,15.6,0.0,12.3,3.521
2012/02/01,09:30:01,018,027,035,1.3,1.5,1.7,15.9,50.6,1014.6,0.00,0,0.0,////,0.0,0,0.0,////,15.6,0.0,12.3,3.523
2012/02/01,09:40:01,005,009,014,1.6,1.7,1.8,15.9,51.7,1014.6,0.00,0,0.0,////,0.0,0,0.0,////,15.6,0.0,12.3,3.523
2012/02/01,09:50:01,021,024,030,2.1,2.2,2.4,16.2,53.8,1014.7,0.00,0,0.0,////,0.0,0,0.0,////,16.3,0.0,12.3,3.523
2012/02/01,10:00:01,021,028,036,1.9,2.1,2.3,16.4,48.4,1014.7,0.00,0,0.0,////,0.0,0,0.0,////,16.9,0.0,12.3,3.521
2012/02/01,10:10:01,025,027,030,2.0,2.1,2.3,16.2,51.3,1014.7,0.00,0,0.0,////,0.0,0,0.0,////,16.5,0.0,12.3,3.523
2012/02/01,10:20:01,056,076,105,0.5,0.7,0.8,16.6,52.2,1014.7,0.00,0,0.0,////,0.0,0,0.0,////,16.9,0.0,12.3,3.521
2012/02/01,10:30:01,009,020,027,2.3,2.5,2.7,17.2,48.2,1014.8,0.00,0,0.0,////,0.0,0,0.0,////,19.1,0.0,12.3,3.523
2012/02/01,10:40:01,042,049,052,1.2,1.6,1.9,17.3,45.9,1014.8,0.00,0,0.0,////,0.0,0,0.0,////,20.0,0.0,12.3,3.523
2012/02/01,10:50:01,066,072,081,2.1,2.2,2.3,17.1,44.3,1014.7,0.00,0,0.0,////,0.0,0,0.0,////,19.6,0.0,12.2,3.521
2012/02/01,11:00:01,004,023,033,0.7,0.9,1.1,16.9,46.7,1014.7,0.00,0,0.0,////,0.0,0,0.0,////,18.7,0.0,12.3,3.521
2012/02/01,11:10:01,024,027,033,1.2,1.5,1.8,17.0,50.1,1014.7,0.00,0,0.0,////,0.0,0,0.0,////,18.1,0.0,12.3,3.521
2012/02/01,11:20:01,138,144,153,0.3,0.7,1.0,17.4,48.8,1014.5,0.00,0,0.0,////,0.0,0,0.0,////,19.6,0.0,12.3,3.521
2012/02/01,11:30:01,358,006,013,1.8,2.1,2.4,18.0,48.5,1014.4,0.00,0,0.0,////,0.0,0,0.0,////,21.2,0.0,12.3,3.523
2012/02/01,11:40:01,052,058,068,1.4,1.5,1.6,17.7,46.0,1014.3,0.00,0,0.0,////,0.0,0,0.0,////,21.2,0.0,12.3,3.521
2012/02/01,11:50:01,050,058,063,1.4,1.5,1.6,17.6,46.9,1014.2,0.00,0,0.0,////,0.0,0,0.0,////,20.5,0.0,12.3,3.524
2012/02/01,12:00:01,354,355,357,1.2,1.3,1.4,17.8,46.7,1014.1,0.00,0,0.0,////,0.0,0,0.0,////,20.8,0.0,12.3,3.521
2012/02/01,12:10:01,003,063,104,0.5,0.7,1.0,17.6,49.1,1013.9,0.00,0,0.0,////,0.0,0,0.0,////,20.0,0.0,12.3,3.521
2012/02/01,12:20:01,059,062,064,1.9,2.1,2.3,17.6,47.1,1013.8,0.00,0,0.0,////,0.0,0,0.0,////,20.3,0.0,12.3,3.521
2012/02/01,12:30:01,034,045,053,1.1,1.5,1.8,17.6,46.9,1013.7,0.00,0,0.0,////,0.0,0,0.0,////,20.5,0.0,12.3,3.521
2012/02/01,12:40:01,025,040,049,3.0,3.2,3.4,17.7,46.9,1013.6,0.00,0,0.0,////,0.0,0,0.0,////,21.0,0.0,12.2,3.523
2012/02/01,12:50:01,041,048,059,0.8,1.2,1.7,18.1,45.7,1013.5,0.00,0,0.0,////,0.0,0,0.0,////,21.7,0.0,12.3,3.520
2012/02/01,13:00:01,000,008,021,1.6,1.7,1.8,17.7,45.7,1013.4,0.00,0,0.0,////,0.0,0,0.0,////,21.3,0.0,12.3,3.521
2012/02/01,13:10:01,312,322,335,1.7,2.2,2.5,17.8,47.3,1013.3,0.00,0,0.0,////,0.0,0,0.0,////,21.8,0.0,12.3,3.521
2012/02/01,13:20:01,351,355,000,2.0,2.5,2.8,17.6,49.4,1013.2,0.00,0,0.0,////,0.0,0,0.0,////,21.7,0.0,12.3,3.521
2012/02/01,13:30:01,353,355,357,1.0,1.2,1.3,17.9,46.7,1013.1,0.00,0,0.0,////,0.0,0,0.0,////,21.8,0.0,12.3,3.523
2012/02/01,13:40:01,005,013,024,1.5,1.6,1.7,17.5,47.6,1012.9,0.00,0,0.0,////,0.0,0,0.0,////,20.8,0.0,12.3,3.523
2012/02/01,13:50:01,336,340,343,1.7,1.8,1.9,17.5,48.9,1012.9,0.00,0,0.0,////,0.0,0,0.0,////,21.2,0.0,12.3,3.523
2012/02/01,14:00:01,347,349,352,2.7,2.8,2.8,17.8,49.7,1012.8,0.00,0,0.0,////,0.0,0,0.0,////,20.6,0.0,12.3,3.521
2012/02/01,14:10:01,339,346,352,1.6,2.0,2.3,17.2,53.4,1012.7,0.00,0,0.0,////,0.0,0,0.0,////,18.6,0.0,12.3,3.521
2012/02/01,14:20:01,012,016,025,2.7,3.4,4.1,17.6,53.7,1012.7,0.00,0,0.0,////,0.0,0,0.0,////,19.3,0.0,12.3,3.521
2012/02/01,14:30:01,342,351,001,2.3,2.5,2.7,17.6,52.1,1012.7,0.00,0,0.0,////,0.0,0,0.0,////,19.3,0.0,12.3,3.523
2012/02/01,14:40:01,326,331,340,1.6,1.8,1.9,17.7,52.5,1012.6,0.00,0,0.0,////,0.0,0,0.0,////,19.8,0.0,12.3,3.521
2012/02/01,14:50:01,008,012,018,2.2,2.5,2.7,17.7,53.9,1012.6,0.00,0,0.0,////,0.0,0,0.0,////,19.6,0.0,12.3,3.523
2012/02/01,15:00:01,354,359,003,2.4,3.0,3.9,17.8,52.0,1012.5,0.00,0,0.0,////,0.0,0,0.0,////,19.4,0.0,12.3,3.521
2012/02/01,15:10:01,355,001,005,3.7,4.0,4.2,17.5,53.4,1012.5,0.00,0,0.0,////,0.0,0,0.0,////,18.7,0.0,12.3,3.523
2012/02/01,15:20:01,343,348,355,4.1,4.3,4.4,17.6,53.4,1012.6,0.00,0,0.0,////,0.0,0,0.0,////,19.3,0.0,12.3,3.521
2012/02/01,15:30:01,314,328,341,1.2,1.4,1.6,17.1,52.4,1012.5,0.00,0,0.0,////,0.0,0,0.0,////,17.9,0.0,12.3,3.523
2012/02/01,15:40:01,330,331,332,2.9,3.3,3.6,17.1,53.4,1012.5,0.00,0,0.0,////,0.0,0,0.0,////,17.7,0.0,12.3,3.523
2012/02/01,15:50:01,359,007,018,2.6,2.8,3.2,17.7,53.5,1012.5,0.00,0,0.0,////,0.0,0,0.0,////,19.1,0.0,12.3,3.521
2012/02/01,16:00:01,315,326,334,1.1,1.2,1.2,17.6,50.3,1012.5,0.00,0,0.0,////,0.0,0,0.0,////,19.4,0.0,12.3,3.523
2012/02/01,16:10:01,337,346,357,2.1,2.5,2.8,17.4,52.0,1012.6,0.00,0,0.0,////,0.0,0,0.0,////,18.7,0.0,12.3,3.520
2012/02/01,16:20:01,354,005,014,1.7,2.7,3.4,17.2,53.1,1012.7,0.00,0,0.0,////,0.0,0,0.0,////,18.1,0.0,12.3,3.523
2012/02/01,16:30:01,333,340,354,2.7,2.9,3.2,16.9,51.9,1012.7,0.00,0,0.0,////,0.0,0,0.0,////,17.0,0.0,12.3,3.521
2012/02/01,16:40:01,351,354,356,2.6,2.9,3.0,16.9,53.6,1012.8,0.00,0,0.0,////,0.0,0,0.0,////,17.0,0.0,12.4,3.523
2012/02/01,16:50:01,325,339,357,2.4,2.9,3.6,16.8,54.2,1012.8,0.00,0,0.0,////,0.0,0,0.0,////,16.7,0.0,12.3,3.523
2012/02/01,17:00:01,341,345,348,2.5,2.7,2.8,16.8,52.4,1012.9,0.00,0,0.0,////,0.0,0,0.0,////,16.9,0.0,12.3,3.523
2012/02/01,17:10:01,332,335,341,2.3,2.6,2.8,16.6,52.1,1013.0,0.00,0,0.0,////,0.0,0,0.0,////,16.5,0.0,12.3,3.523
2012/02/01,17:20:01,003,011,015,2.1,2.1,2.2,16.5,51.2,1013.1,0.00,0,0.0,////,0.0,0,0.0,////,16.0,0.0,12.3,3.524
2012/02/01,17:30:01,340,344,350,4.3,4.6,4.8,16.5,54.6,1013.2,0.00,0,0.0,////,0.0,0,0.0,////,15.8,0.0,12.3,3.523
2012/02/01,17:40:01,345,350,355,3.7,4.6,5.2,16.4,57.4,1013.2,0.00,0,0.0,////,0.0,0,0.0,////,15.6,0.0,12.3,3.523
2012/02/01,17:50:01,007,013,025,2.0,2.5,2.9,16.2,54.8,1013.2,0.00,0,0.0,////,0.0,0,0.0,////,15.3,0.0,12.3,3.521
2012/02/01,18:00:01,000,001,003,3.3,3.5,3.7,16.2,56.6,1013.3,0.00,0,0.0,////,0.0,0,0.0,////,15.1,0.0,12.3,3.523
2012/02/01,18:10:01,001,006,014,3.6,3.8,4.0,16.0,57.0,1013.4,0.00,0,0.0,////,0.0,0,0.0,////,15.0,0.0,12.3,3.523
2012/02/01,18:20:01,332,342,349,2.5,2.8,3.0,16.0,53.0,1013.4,0.00,0,0.0,////,0.0,0,0.0,////,14.8,0.0,12.3,3.523
2012/02/01,18:30:01,354,003,010,2.0,2.5,2.8,15.9,56.6,1013.5,0.00,0,0.0,////,0.0,0,0.0,////,14.8,0.0,12.3,3.523
2012/02/01,18:40:01,345,352,000,3.7,3.8,4.1,16.0,55.2,1013.5,0.00,0,0.0,////,0.0,0,0.0,////,14.8,0.0,12.3,3.525
2012/02/01,18:50:01,335,348,358,3.3,3.6,4.0,15.9,56.2,1013.6,0.00,0,0.0,////,0.0,0,0.0,////,14.8,0.0,12.3,3.523
2012/02/01,19:00:01,353,000,008,3.6,4.0,4.3,16.0,55.0,1013.8,0.00,0,0.0,////,0.0,0,0.0,////,15.0,0.0,12.3,3.523
2012/02/01,19:10:01,002,006,010,3.0,4.0,5.0,15.8,55.5,1013.9,0.00,0,0.0,////,0.0,0,0.0,////,14.6,0.0,12.3,3.523
2012/02/01,19:20:01,348,352,356,1.8,2.0,2.2,15.7,54.6,1013.9,0.00,0,0.0,////,0.0,0,0.0,////,14.4,0.0,12.3,3.524
2012/02/01,19:30:01,351,005,015,2.0,2.5,3.2,15.6,54.3,1013.9,0.00,0,0.0,////,0.0,0,0.0,////,14.4,0.0,12.3,3.521
2012/02/01,19:40:01,004,024,037,2.0,2.2,2.4,15.6,53.8,1014.1,0.00,0,0.0,////,0.0,0,0.0,////,14.3,0.0,12.3,3.523
2012/02/01,19:50:01,354,002,008,3.8,4.0,4.1,15.6,54.6,1014.2,0.00,0,0.0,////,0.0,0,0.0,////,14.3,0.0,12.3,3.523
2012/02/01,20:00:01,006,017,029,4.1,5.4,6.1,15.7,56.8,1014.2,0.00,0,0.0,////,0.0,0,0.0,////,14.4,0.0,12.3,3.523
2012/02/01,20:10:01,020,030,037,2.9,3.3,3.7,15.7,53.9,1014.3,0.00,0,0.0,////,0.0,0,0.0,////,14.6,0.0,12.3,3.524
2012/02/01,20:20:01,008,012,019,4.7,5.0,5.3,15.7,54.1,1014.3,0.00,0,0.0,////,0.0,0,0.0,////,14.6,0.0,12.3,3.523
2012/02/01,20:30:01,347,350,354,6.0,6.2,6.3,15.6,53.7,1014.3,0.00,0,0.0,////,0.0,0,0.0,////,14.6,0.0,12.3,3.524
2012/02/01,20:40:01,359,010,017,1.2,2.2,3.2,15.5,53.8,1014.3,0.00,0,0.0,////,0.0,0,0.0,////,14.4,0.0,12.3,3.524
2012/02/01,20:50:01,348,354,001,3.1,3.3,3.4,15.4,53.0,1014.4,0.00,0,0.0,////,0.0,0,0.0,////,14.3,0.0,12.3,3.521
2012/02/01,21:00:01,007,011,016,4.5,5.0,5.4,15.3,52.6,1014.4,0.00,0,0.0,////,0.0,0,0.0,////,14.4,0.0,12.3,3.523
2012/02/01,21:10:01,016,023,031,3.7,4.3,4.8,15.6,57.5,1014.5,0.00,0,0.0,////,0.0,0,0.0,////,14.4,0.0,12.3,3.523
2012/02/01,21:20:01,015,021,028,2.4,3.3,4.2,15.7,56.0,1014.5,0.00,0,0.0,////,0.0,0,0.0,////,14.6,0.0,12.3,3.523
2012/02/01,21:30:01,002,004,007,6.8,7.5,8.0,15.7,56.2,1014.5,0.00,0,0.0,////,0.0,0,0.0,////,14.8,0.0,12.3,3.524
2012/02/01,21:40:01,349,003,013,6.3,7.4,8.3,15.6,57.8,1014.5,0.00,0,0.0,////,0.0,0,0.0,////,14.6,0.0,12.2,3.521
2012/02/01,21:50:01,350,005,019,4.7,4.9,5.1,15.5,54.4,1014.6,0.00,0,0.0,////,0.0,0,0.0,////,14.6,0.0,12.3,3.521
2012/02/01,22:00:01,354,008,018,2.9,4.1,5.2,15.5,54.8,1014.7,0.00,0,0.0,////,0.0,0,0.0,////,14.4,0.0,12.3,3.523
2012/02/01,22:10:01,357,006,016,3.2,3.6,4.2,15.5,52.0,1014.8,0.00,0,0.0,////,0.0,0,0.0,////,14.4,0.0,12.3,3.524
2012/02/01,22:20:01,000,009,018,3.4,4.2,4.9,15.4,55.6,1014.9,0.00,0,0.0,////,0.0,0,0.0,////,14.3,0.0,12.3,3.523
2012/02/01,22:30:01,000,006,011,4.5,4.6,4.7,15.3,53.7,1014.9,0.00,0,0.0,////,0.0,0,0.0,////,14.3,0.0,12.3,3.523
2012/02/01,22:40:01,013,022,026,3.8,4.7,5.5,15.4,54.7,1014.8,0.00,0,0.0,////,0.0,0,0.0,////,14.3,0.0,12.3,3.523
2012/02/01,22:50:01,001,005,011,5.1,5.5,5.9,15.5,53.9,1014.7,0.00,0,0.0,////,0.0,0,0.0,////,14.4,0.0,12.3,3.523
2012/02/01,23:00:01,355,358,003,4.5,4.7,4.9,15.4,56.1,1014.6,0.00,0,0.0,////,0.0,0,0.0,////,14.6,0.0,12.3,3.523
2012/02/01,23:10:01,350,356,359,5.0,5.6,6.1,15.4,54.6,1014.6,0.00,0,0.0,////,0.0,0,0.0,////,14.4,0.0,12.3,3.525
2012/02/01,23:20:01,345,353,357,3.0,3.7,4.7,15.4,52.6,1014.7,0.00,0,0.0,////,0.0,0,0.0,////,14.3,0.0,12.3,3.524
2012/02/01,23:30:01,348,354,004,4.5,5.1,5.5,15.5,54.2,1014.8,0.00,0,0.0,////,0.0,0,0.0,////,14.4,0.0,12.3,3.523
2012/02/01,23:40:01,023,024,025,3.4,4.5,5.6,15.4,53.6,1014.7,0.00,0,0.0,////,0.0,0,0.0,////,14.3,0.0,12.3,3.523
2012/02/01,23:50:01,353,001,007,3.0,3.6,4.5,15.3,56.4,1014.6,0.00,0,0.0,////,0.0,0,0.0,////,14.3,0.0,12.3,3.523
2012/02/02,00:00:01,006,017,027,2.9,3.6,4.2,15.4,60.0,1014.5,0.00,0,0.0,////,0.0,0,0.0,////,14.3,0.0,12.3,3.523
2012/02/02,00:10:01,012,018,025,4.3,4.7,5.2,15.3,58.1,1014.4,0.00,0,0.0,////,0.0,0,0.0,////,14.3,0.0,12.3,3.524
2012/02/02,00:20:01,004,006,008,5.7,7.3,9.5,15.4,60.0,1014.3,0.00,0,0.0,////,0.0,0,0.0,////,14.4,0.0,12.2,3.523
2012/02/02,00:30:01,352,009,023,4.2,4.8,5.8,15.3,58.1,1014.4,0.00,0,0.0,////,0.0,0,0.0,////,14.4,0.0,12.3,3.523
2012/02/02,00:40:01,009,014,018,5.3,6.0,6.6,15.2,55.3,1014.3,0.00,0,0.0,////,0.0,0,0.0,////,14.3,0.0,12.3,3.523
2012/02/02,00:50:01,358,008,020,6.6,7.7,8.4,15.2,55.3,1014.4,0.00,0,0.0,////,0.0,0,0.0,////,13.7,0.0,12.3,3.524
2012/02/02,01:00:01,008,012,015,4.9,5.1,5.3,15.2,53.7,1014.4,0.00,0,0.0,////,0.0,0,0.0,////,14.1,0.0,12.2,3.523
2012/02/02,01:10:01,353,004,010,5.0,5.2,5.5,15.2,52.7,1014.4,0.00,0,0.0,////,0.0,0,0.0,////,14.1,0.0,12.3,3.523
2012/02/02,01:20:01,006,012,017,2.9,4.0,4.7,15.3,55.1,1014.3,0.00,0,0.0,////,0.0,0,0.0,////,14.3,0.0,12.3,3.523
2012/02/02,01:30:01,003,008,015,5.3,6.4,7.8,15.3,55.4,1014.4,0.00,0,0.0,////,0.0,0,0.0,////,14.3,0.0,12.3,3.521
2012/02/02,01:40:01,353,358,003,6.2,6.6,6.8,15.2,53.3,1014.4,0.00,0,0.0,////,0.0,0,0.0,////,14.1,0.0,12.3,3.523
2012/02/02,01:50:01,349,357,008,5.8,7.0,8.1,15.2,54.9,1014.4,0.00,0,0.0,////,0.0,0,0.0,////,14.3,0.0,12.3,3.525
2012/02/02,02:00:01,014,020,028,5.2,6.7,7.6,15.3,55.6,1014.5,0.00,0,0.0,////,0.0,0,0.0,////,14.3,0.0,12.3,3.523
2012/02/02,02:10:01,338,355,011,4.7,5.0,5.3,15.3,57.1,1014.4,0.00,0,0.0,////,0.0,0,0.0,////,14.4,0.0,12.3,3.523
2012/02/02,02:20:01,001,007,013,5.7,6.0,6.3,15.3,55.4,1014.4,0.00,0,0.0,////,0.0,0,0.0,////,14.3,0.0,12.3,3.523
2012/02/02,02:30:01,015,022,031,4.2,4.3,4.4,15.4,57.4,1014.3,0.00,0,0.0,////,0.0,0,0.0,////,14.4,0.0,12.3,3.523
2012/02/02,02:40:01,343,344,346,4.1,5.1,5.8,15.4,55.0,1014.3,0.00,0,0.0,////,0.0,0,0.0,////,14.4,0.0,12.3,3.524
2012/02/02,02:50:01,004,014,024,3.7,3.9,4.1,15.3,51.6,1014.3,0.00,0,0.0,////,0.0,0,0.0,////,14.3,0.0,12.3,3.523
2012/02/02,03:00:01,005,007,009,4.0,4.7,5.5,15.4,49.9,1014.3,0.00,0,0.0,////,0.0,0,0.0,////,14.1,0.0,12.3,3.523
2012/02/02,03:10:01,359,004,010,3.6,4.3,4.9,15.4,54.2,1014.1,0.00,0,0.0,////,0.0,0,0.0,////,14.3,0.0,12.3,3.523
2012/02/02,03:20:01,001,002,005,3.0,3.5,3.8,15.2,54.1,1013.7,0.00,0,0.0,////,0.0,0,0.0,////,13.9,0.0,12.3,3.523
2012/02/02,03:30:01,001,008,016,3.7,4.5,4.9,15.2,57.0,1013.5,0.00,0,0.0,////,0.0,0,0.0,////,13.9,0.0,12.3,3.523
2012/02/02,03:40:01,335,343,354,4.4,5.1,5.9,15.2,57.2,1013.6,0.00,0,0.0,////,0.0,0,0.0,////,13.7,0.0,12.3,3.523
2012/02/02,03:50:01,350,005,021,2.3,2.7,3.3,15.0,55.9,1013.8,0.00,0,0.0,////,0.0,0,0.0,////,13.7,0.0,12.2,3.523
2012/02/02,04:00:01,348,356,000,3.9,4.7,5.3,15.0,59.0,1013.6,0.00,0,0.0,////,0.0,0,0.0,////,13.7,0.0,12.2,3.523
2012/02/02,04:10:01,358,009,020,3.6,3.8,4.0,15.2,60.2,1013.5,0.00,0,0.0,////,0.0,0,0.0,////,13.9,0.0,12.2,3.523
2012/02/02,04:20:01,010,014,018,6.2,6.4,6.7,14.7,64.7,1013.4,0.00,50,0.0,////,0.0,0,0.0,////,13.6,0.0,12.3,3.523
2012/02/02,04:30:01,017,025,033,7.8,8.0,8.2,14.8,64.4,1013.5,0.00,0,0.0,////,0.0,0,0.0,////,13.7,0.0,12.2,3.521
2012/02/02,04:40:01,002,009,012,4.2,5.7,6.8,14.9,63.1,1013.5,0.00,0,0.0,////,0.0,0,0.0,////,13.7,0.0,12.2,3.524
2012/02/02,04:50:01,019,026,038,6.5,7.3,7.8,15.1,63.1,1013.4,0.00,0,0.0,////,0.0,0,0.0,////,13.9,0.0,12.2,3.523
2012/02/02,05:00:01,012,015,021,6.5,7.2,7.7,15.0,62.4,1013.6,0.00,0,0.0,////,0.0,0,0.0,////,13.9,0.0,12.2,3.523
2012/02/02,05:10:01,009,016,020,4.2,4.3,4.5,14.9,61.4,1013.6,0.00,0,0.0,////,0.0,0,0.0,////,13.7,0.0,12.3,3.521
2012/02/02,05:20:01,010,022,029,5.0,5.1,5.3,14.9,62.6,1013.6,0.00,0,0.0,////,0.0,0,0.0,////,13.7,0.0,12.3,3.523
2012/02/02,05:30:01,354,007,013,6.6,7.3,8.6,14.8,60.8,1013.6,0.00,0,0.0,////,0.0,0,0.0,////,13.7,0.0,12.3,3.523
2012/02/02,05:40:01,014,016,021,8.0,8.5,9.0,14.8,61.7,1013.7,0.00,0,0.0,////,0.0,0,0.0,////,13.7,0.0,12.2,3.523
2012/02/02,05:50:01,010,017,021,6.1,7.3,8.3,14.8,61.0,1014.0,0.00,0,0.0,////,0.0,0,0.0,////,13.7,0.0,12.2,3.523
2012/02/02,06:00:01,358,013,025,5.3,5.6,6.0,14.7,60.9,1014.1,0.00,0,0.0,////,0.0,0,0.0,////,13.6,0.0,12.3,3.523
2012/02/02,06:10:01,002,011,024,6.9,7.2,7.6,14.7,61.9,1013.9,0.00,0,0.0,////,0.0,0,0.0,////,13.7,0.0,12.2,3.524
2012/02/02,06:20:01,015,021,029,4.4,5.2,5.7,14.6,62.9,1014.2,0.00,0,0.0,////,0.0,0,0.0,////,13.6,0.0,12.2,3.521
2012/02/02,06:30:01,000,001,004,4.4,6.1,7.8,14.6,63.1,1014.3,0.00,0,0.0,////,0.0,0,0.0,////,13.4,0.0,12.3,3.523
2012/02/02,06:40:01,356,010,023,6.1,6.5,6.8,14.5,60.2,1014.5,0.00,0,0.0,////,0.0,0,0.0,////,13.6,0.0,12.2,3.521
2012/02/02,06:50:01,002,003,004,4.5,6.1,7.5,14.6,62.5,1014.9,0.00,0,0.0,////,0.0,0,0.0,////,13.7,0.0,12.4,3.521
2012/02/02,07:00:01,009,011,013,6.1,7.0,7.8,14.6,63.0,1015.2,0.00,0,0.0,////,0.0,0,0.0,////,13.6,0.0,12.3,3.521
2012/02/02,07:10:01,003,008,016,5.9,6.8,8.3,14.4,62.4,1015.0,0.00,0,0.0,////,0.0,0,0.0,////,13.6,0.0,12.3,3.523
2012/02/02,07:20:01,011,019,029,5.1,6.8,8.1,14.4,61.1,1015.1,0.00,0,0.0,////,0.0,0,0.0,////,13.2,0.0,12.2,3.523
2012/02/02,07:30:01,004,010,016,5.8,7.0,8.3,14.3,59.8,1015.3,0.00,0,0.0,////,0.0,0,0.0,////,13.4,0.0,12.3,3.521
2012/02/02,07:40:01,335,357,013,5.6,6.1,6.7,14.4,62.4,1015.5,0.00,0,0.0,////,0.0,0,0.0,////,13.2,0.0,12.3,3.523
2012/02/02,07:50:01,025,028,032,6.0,6.2,6.4,14.3,63.3,1015.7,0.00,0,0.0,////,0.0,0,0.0,////,13.2,0.0,12.4,3.523
2012/02/02,08:00:01,002,010,018,5.1,5.6,6.3,14.2,61.8,1015.9,0.00,0,0.0,////,0.0,0,0.0,////,13.2,0.0,12.3,3.523
2012/02/02,08:10:01,021,028,035,5.8,7.5,8.9,14.2,60.4,1015.6,0.00,0,0.0,////,0.0,0,0.0,////,13.4,0.0,12.2,3.523
2012/02/02,08:20:01,357,005,013,5.8,7.5,9.1,14.0,60.0,1015.6,0.00,0,0.0,////,0.0,0,0.0,////,13.1,0.0,12.2,3.523
2012/02/02,08:30:01,352,357,003,6.4,6.8,7.0,14.3,64.6,1015.9,0.00,0,0.0,////,0.0,0,0.0,////,13.1,0.0,12.2,3.523
2012/02/02,08:40:01,346,001,015,6.5,7.7,9.0,14.2,63.3,1016.2,0.00,0,0.0,////,0.0,0,0.0,////,13.2,0.0,12.2,3.523
2012/02/02,08:50:01,359,012,020,4.5,4.9,5.3,14.1,62.3,1016.3,0.00,0,0.0,////,0.0,0,0.0,////,13.1,0.0,12.3,3.523
2012/02/02,09:00:01,001,007,014,6.0,6.9,8.0,14.1,61.6,1016.3,0.00,0,0.0,////,0.0,0,0.0,////,13.1,0.0,12.2,3.521
2012/02/02,09:10:01,356,001,008,4.7,5.3,5.7,13.9,61.0,1016.5,0.00,0,0.0,////,0.0,0,0.0,////,13.1,0.0,12.3,3.523
2012/02/02,09:20:01,002,007,014,5.5,7.2,8.7,14.2,62.0,1016.6,0.00,0,0.0,////,0.0,0,0.0,////,13.1,0.0,12.2,3.523
2012/02/02,09:30:01,336,342,349,4.6,5.7,6.7,13.9,62.2,1016.8,0.00,0,0.0,////,0.0,0,0.0,////,13.1,0.0,12.3,3.523
2012/02/02,09:40:01,339,353,010,3.8,5.3,7.4,13.8,62.5,1016.9,0.00,0,0.0,////,0.0,0,0.0,////,12.9,0.0,12.3,3.523
2012/02/02,09:50:01,350,000,023,5.8,6.5,8.2,13.9,64.9,1016.8,0.00,0,0.0,////,0.0,0,0.0,////,13.2,0.0,12.2,3.524
2012/02/02,10:00:01,007,013,016,6.0,6.1,6.2,13.8,62.9,1017.2,0.00,0,0.0,////,0.0,0,0.0,////,12.9,0.0,12.2,3.521
2012/02/02,10:10:01,340,356,017,5.7,6.7,7.5,13.7,65.4,1017.2,0.00,0,0.0,////,0.0,0,0.0,////,12.9,0.0,12.3,3.523
2012/02/02,10:20:01,347,356,005,6.7,7.8,8.8,13.6,63.3,1017.2,0.00,0,0.0,////,0.0,0,0.0,////,12.4,0.0,12.3,3.525
2012/02/02,10:30:01,342,345,346,5.9,7.2,8.5,13.7,61.0,1017.1,0.00,0,0.0,////,0.0,0,0.0,////,12.9,0.0,12.3,3.523
2012/02/02,10:40:01,348,000,017,6.2,6.7,7.1,13.5,64.6,1017.1,0.00,10,0.0,////,0.0,0,0.0,////,12.7,0.0,12.3,3.523